Date,TemperatureHighF,TemperatureAvgF,TemperatureLowF,DewpointHighF,DewpointAvgF,DewpointLowF,HumidityHigh,HumidityAvg,HumidityLow,PressureMaxIn,PressureMinIn,WindSpeedMaxMPH,WindSpeedAvgMPH,GustSpeedMaxMPH,PrecipitationSumIn
2013-2-1,74.7,59.0,44.5,44.0,38.1,32.8,76,49,22,29.71,29.59,7,3,11,0.00
2013-2-2,76.2,63.1,49.9,42.6,37.3,32.8,70,41,21,29.74,29.59,13,5,16,0.00
2013-2-3,74.1,65.1,58.6,47.3,40.1,33.6,65,41,25,29.59,29.44,17,8,21,0.00
2013-2-4,76.0,63.1,50.7,44.3,38.8,31.9,74,44,20,29.53,29.41,14,5,24,0.00
2013-2-5,78.3,64.2,49.3,40.5,35.8,24.0,69,38,14,29.50,29.38,11,3,13,0.00
2013-2-6,74.9,64.4,52.6,41.4,37.6,28.0,61,38,17,29.50,29.35,14,4,19,0.00
2013-2-7,74.6,62.1,48.4,47.4,37.6,21.4,82,46,13,29.56,29.38,12,4,16,0.00
2013-2-8,63.8,56.4,48.6,40.8,31.9,22.8,72,41,21,29.44,29.32,25,11,30,0.01
2013-2-9,60.3,51.3,42.8,35.4,29.7,23.4,70,45,24,29.53,29.32,18,8,23,0.00
2013-2-10,96.6,50.7,39.3,33.0,29.4,24.7,71,45,25,29.53,29.44,15,5,29,0.54
2013-2-11,58.8,49.1,39.2,33.0,25.1,13.7,73,42,17,29.68,29.47,23,8,28,0.00
2013-2-12,61.0,49.6,35.9,18.9,13.4,7.6,46,25,12,29.80,29.68,16,6,23,0.00
2013-2-13,67.0,53.3,38.0,24.6,18.9,13.8,44,26,16,29.74,29.59,21,6,24,0.00
2013-2-14,73.7,58.9,41.6,27.1,24.4,22.6,51,28,15,29.68,29.53,22,7,26,0.00
2013-2-15,77.5,64.2,52.6,26.1,21.9,15.4,34,21,10,29.74,29.59,15,8,26,0.00
2013-2-16,78.9,63.6,49.3,20.9,17.9,11.1,31,18,8,29.71,29.44,11,5,14,0.00
2013-2-17,76.7,61.6,46.3,30.0,19.4,14.9,32,20,11,29.44,29.32,19,6,22,0.00
2013-2-18,75.5,61.5,45.3,29.1,24.1,18.7,41,25,12,29.50,29.35,9,3,12,0.00
2013-2-19,66.4,57.0,45.5,41.9,32.6,27.5,71,41,23,29.35,29.21,21,8,25,0.00
2013-2-20,56.3,50.8,43.9,41.6,31.9,23.3,82,50,28,29.41,29.15,22,9,29,0.01
2013-2-21,62.5,49.6,36.3,42.7,34.7,28.5,80,58,29,29.56,29.41,14,6,19,0.00
2013-2-22,65.4,52.1,36.9,39.1,27.4,13.6,93,47,14,29.68,29.53,17,6,22,0.00
2013-2-23,70.1,56.1,39.9,28.3,21.4,14.2,49,28,12,29.62,29.29,16,6,21,0.00
2013-2-24,62.5,55.6,49.3,23.1,7.3,1.6,32,14,9,29.65,29.35,34,17,44,0.00
2013-2-25,67.3,55.1,41.4,13.7,9.3,6.2,27,16,9,29.71,29.50,14,6,19,0.00
2013-2-26,70.8,56.0,40.1,16.4,10.7,5.3,31,17,9,29.59,29.44,23,9,28,0.00
2013-2-27,67.3,57.7,44.5,10.5,4.5,-3.0,24,12,6,29.74,29.59,22,12,32,0.00
2013-2-28,74.6,60.9,47.7,8.5,4.7,-0.5,15,10,6,29.83,29.71,19,10,23,0.00